星链-37192(STARLINK-37192)

导读

STARLINK-37192(NORAD编号68342)是美国太空探索技术公司(SpaceX)星链(Starlink)低轨互联网星座中的一颗卫星,隶属于全球覆盖的星链通信网络项目。星链计划最终计划部署4.2万颗近地轨道卫星,旨在为全球提供高速低时延互联网接入服务。该卫星配备氩气离子推进系统用于轨道机动与脱轨,采用多频段相控阵天线实现高带宽通信,搭载太阳能供电系统与星跟踪导航设备,作为星链星座的组成部分,为消费端及特殊用户提供稳定的天基通信支持。

基本信息
目录编号:
68342
目录名称:
STARLINK-37192
国际标识:
2026-059X
轨道中心:
EARTH
卫星名称:
星链-37192
卫星全名:
星链-37192(STARLINK-37192)
卫星状态:
在轨 (已飞行175 天)
发射日期:
2026-03-22 UTC
国别 :
美国 (US)
星等 :
--
该卫星已列入 空间交会检测服务 Space Conjunction Data Service (SCDS) ,当前飞行风险评估等级: 高风险
轨道信息
数据来源 国际轨道数据 AOE轨道数据
星历时间 2026-09-13T08:37:34+0800
9小时前
查看轨道信息
2026-09-06T22:00:00+0800
6天前
查看轨道信息
半长轴 6840.808km 6840.897km
偏心率 0.0001635 0.000144
轨道倾角 53.159° 53.158°
近地点辐角 134.780° 89.995°
升交点赤经 190.582° 220.708°
平近点角 225.334° 301.645°
近地点 461.552km 461.774km
远地点 463.79km 463.746km
周期 93.847分钟 93.849分钟
每日圈数 15.34411 15.343811
详细信息
固有亮度:
5
最大亮度:
2.5
卫星平台:
Starlink V1.0
覆盖范围:
全球
运营商:
太空探索技术公司
运营商所在国:
美国
制造商(研发单位):
太空探索技术公司
制造商所在国:
美国
使用方式:
暂无
卫星简介
Starlink 计划是 SpaceX 推出的全球卫星互联网项目,通过发射低轨道卫星,为全球尤其是偏远地区提供高速、低延迟的互联网服务。自 2019 年起,Starlink 已部署数千颗卫星,旨在缩小全球数字鸿沟,推动互联网普及。该项目还为军事、航空等行业提供通信支持,带来广泛经济效益。
2D轨道图
3D轨道图
轨道高度分析图
轨道倾角分析图
轨道综合分析图
查看轨道综合分析图
交会数据列表
事件ID 空间交会对象 最接近时刻(TCA) 交会距离 交会风险概率(CRP) 交会风险指数(CRI) 操作
CDM_260915-035505-283706-834221
2026-09-15T
03:55:22+0000
0.115 km
中距离
9.870425E-4 高风险 0.95
CDM_260914-191905-283706-834221
2026-09-14T
19:19:31+0000
1.224 km
极远距离
8.143648E-6 低风险 0.53
CDM_260914-205305-283706-834221
2026-09-14T
20:53:18+0000
2.154 km
极远距离
1.540417E-6 低风险 0.39
CDM_260910-141805-264606-834221
2026-09-10T
14:18:17+0000
2.132 km
极远距离
1.473454E-6 低风险 0.38
CDM_260915-000505-212206-834221
2026-09-15T
00:05:50+0000
2.913 km
极远距离
1.127211E-6 低风险 0.36
与全量物体交会距离演化趋势
与全量物体交会风险概率演化趋势